This demonstration page uses our WeatherBlox Daily Observations layout. Learn more.

Left ArrowRight Arrow

Hourly Observations for May 26, 2015

Temp ( °F °C ) Dew Point ( °F °C ) Humidity (%) Winds ( mph kmh ) Pressure ( in mb ) Visibility ( mi km ) Precip ( " mm )
12:53 am 00:53 Clear 71 21.7 53 11.7 53 53 W 5 7 29.87 1011 10 16 0.00 0.00
1:53 am 01:53 Clear 69 20.6 53 11.7 57 57 Calm 29.87 1012 10 16 0.00 0.00
2:53 am 02:53 Clear 67 19.4 53 11.7 61 61 S 6 9 29.88 1012 10 16 0.00 0.00
3:53 am 03:53 Clear 65 18.3 53 11.7 66 66 S 6 9 29.89 1012 10 16 0.00 0.00
4:53 am 04:53 Clear 64 17.8 52 11.1 65 65 S 5 7 29.90 1012 10 16 0.00 0.00
5:53 am 05:53 Sunny 60 15.6 52 11.1 75 75 SSE 6 9 29.91 1013 10 16 0.00 0.00
6:53 am 06:53 Sunny 62 16.7 52 11.1 70 70 SSE 5 7 29.92 1013 10 16 0.00 0.00
7:53 am 07:53 Sunny 64 17.8 52 11.1 65 65 S 5 7 29.93 1014 10 16 0.00 0.00
8:30 am 08:30 Hazy 66 19 52 11 60 60 S 5 7 29.91 1013 3 5 0.00 0.00
8:53 am 08:53 Sunny 67 19.4 52 11.1 59 59 SW 3 6 29.93 1014 10 16 0.00 0.00
9:53 am 09:53 Sunny 71 21.7 52 11.1 51 51 S 5 7 29.92 1013 10 16 0.00 0.00
10:53 am 10:53 Sunny 73 22.8 53 11.7 50 50 SE 3 6 29.91 1013 10 16 0.00 0.00
11:53 am 11:53 Sunny 77 25 53 11.7 43 43 VRB 5 7 29.89 1012 10 16 0.00 0.00
12:53 pm 12:53 Sunny 81 27.2 51 10.6 35 35 VRB 7 11 29.88 1012 10 16 0.00 0.00
1:53 pm 13:53 Sunny 84 28.9 48 8.9 29 29 SW 12 19 29.86 1011 10 16 0.00 0.00
2:53 pm 14:53 Sunny 85 29.4 47 8.3 27 27 SW 8 13 29.84 1011 10 16 0.00 0.00
3:53 pm 15:53 Sunny 87 30.6 48 8.9 26 26 S 16 26 29.82 1010 10 16 0.00 0.00
4:53 pm 16:53 Sunny 87 30.6 47 8.3 25 25 S 15 24 29.81 1009 10 16 0.00 0.00
5:53 pm 17:53 Sunny 86 30 45 7.2 24 24 S 14 22 29.80 1009 10 16 0.00 0.00
6:53 pm 18:53 Sunny 84 28.9 46 7.8 27 27 S 8 13 29.80 1009 10 16 0.00 0.00
7:53 pm 19:53 Sunny 82 27.8 48 8.9 31 31 SSE 7 11 29.81 1009 10 16 0.00 0.00
8:53 pm 20:53 Clear 78 25.6 52 11.1 40 40 S 7 11 29.82 1010 10 16 0.00 0.00
9:53 pm 21:53 Clear 75 23.9 53 11.7 46 46 ESE 3 6 29.85 1011 10 16 0.00 0.00
10:53 pm 22:53 Clear 74 23.3 56 13.3 54 54 S 9 15 29.87 1011 10 16 0.00 0.00
11:53 pm 23:53 Clear 74 23.3 54 12.2 50 50 S 3 6 29.88 1012 10 16 0.00 0.00

Powered by AerisWeather